Regional Weather Roundup
Issued by NWS

Home | Current Version | Previous Version | Text Only | Print | Product List | Glossary On
Versions: 1 2 3 4 5 6 7 8 9 10 11 12 13 14 15 16 17 18 19 20 21 22 23 24 25 26 27 28 29 30 31 32 33 34 35 36 37 38 39 40 41 42 43 44 45 46 47 48 49 50
728
ASUS45 KTFX 241910
RWRMT
MONTANA REGIONAL WEATHER ROUNDUP
NATIONAL WEATHER SERVICE GREAT FALLS MT
100 PM MDT TUE MAY 24 2016

NOTE: "FAIR" INDICATES FEW OR NO CLOUDS BELOW 12000 FEET WITH NO
SIGNIFICANT WEATHER AND/OR OBSTRUCTIONS TO VISIBILITY.

MTZ001>007-043-242000-
WEST OF THE DIVIDE

CITY           SKY/WX    TMP DP  RH WIND       PRES   REMARKS
KALISPELL      CLOUDY    51  41  68 CALM      29.93R
MISSOULA       CLOUDY    52  42  69 W7        29.94S
BUTTE          LGT RAIN  45  36  70 VRB3      29.93S
MULLAN PASS    LGT RAIN  38  37  97 VRB5      29.94R VSB<1/4
ANACONDA         N/A     52  36  54 SW6       29.90F
DEER LODGE       N/A     46  39  76 NW3       29.93S
EUREKA           N/A     59  41  51 E5        29.91F
HAMILTON         N/A     54  39  58 CALM      29.91S
LIBBY            N/A     57  43  58 N3        29.91S
PLAINS           N/A     56  43  61 CALM      29.94S
$$

MTZ008-052>055-242000-
SOUTHWEST MONTANA

CITY           SKY/WX    TMP DP  RH WIND       PRES   REMARKS
BOZEMAN        CLOUDY    51  41  68 N5        29.92F
DILLON         CLOUDY    52  38  58 NE7       29.90F
ENNIS          MOSUNNY   52  36  54 VRB5G12   29.95F
TWIN BRIDGES     N/A     51  36  56 N6        29.92F
$$

MTZ009-010-012-014-046-048-049-054-242000-
EAST SLOPES AND CENTRAL MONTANA

CITY           SKY/WX    TMP DP  RH WIND       PRES   REMARKS
CUT BANK       CLOUDY    52  39  61 CALM      29.89S
GREAT FALLS    CLOUDY    53  36  52 VRB3      29.90F
MALMSTROM AFB  MOSUNNY   54  39  56 N8G14     29.90F
HELENA         CLOUDY    55  40  56 S8        29.91R
CHOTEAU          N/A     54  39  58 VRB5      29.90S
CONRAD           N/A     54  47  77 NW3       29.93F
$$

MTZ011-013-016-021-045-047-050-051-242000-
NORTH CENTRAL MONTANA

CITY           SKY/WX    TMP DP  RH WIND       PRES   REMARKS
HAVRE          CLOUDY    53  47  79 SW7       29.89S
LEWISTOWN      CLOUDY    53  37  54 VRB5      29.90S
N BAR RANCH    LGT RAIN  48  41  76 NW10      29.92F
CHINOOK          N/A     54  46  76 W10       29.88F
$$

MTZ017>020-022>027-061-062-242000-
NORTHEAST MONTANA

CITY           SKY/WX    TMP DP  RH WIND       PRES   REMARKS
GLASGOW        CLOUDY    58  41  53 W12       29.88R
JORDAN           N/A     60  38  43 W15       29.89S
SIDNEY         CLOUDY    66  40  38 SW12      29.88F
WOLF POINT     PTSUNNY   64  42  44 W9        29.88S
PLENTYWOOD       N/A     61  43  51 SW13      29.87R
POPLAR           N/A     61  41  48 W7G18     29.89R
SCOBEY           N/A     59  36  42 SW15      29.86R
$$

MTZ028>42-056>058-242000-
SOUTHCENTRAL AND SOUTHEAST MONTANA

CITY           SKY/WX    TMP DP  RH WIND       PRES   REMARKS
BAKER          MOSUNNY   65  39  38 S8        29.91F
BILLINGS       MOSUNNY   59  39  47 E6        29.90F
LIVINGSTON     CLOUDY    55  39  54 N8        29.89F
MILES CITY     MOSUNNY   64  40  41 VRB6      29.90F
EKALAKA          N/A     68  38  33 NE8       29.90
FORSYTH          N/A     61  39  44 CALM      29.90F
ROUNDUP          N/A     59  36  42 S1        29.83S
$$

REGIONAL REPORTS...DAKOTAS

CITY           SKY/WX    TMP DP  RH WIND       PRES   REMARKS
WILLISTON      PTSUNNY   68  39  34 SW15G23   29.89S
MINOT          MOSUNNY   74  38  27 S8        29.88S
DICKINSON      PTSUNNY   66  36  32 NW6       29.89F
BEACH            N/A     64  39  39 W7        29.94S
CROSBY         PTSUNNY   64  37  36 S15       29.89S
WATFORD CITY   PTSUNNY   66  39  37 W12G17    29.90S
BISMARCK       SUNNY     74  41  30 VRB3      29.89S
GRAND FORKS    MOSUNNY   76  51  41 SW8       29.86S
FARGO          SUNNY     81  43  26 N3        29.84S
BUFFALO SD       N/A     71  40  32 E13       29.83F
RAPID CITY     MOSUNNY   70  43  37 SE10      29.90F
$$

REGIONAL REPORTS...WYOMING/IDAHO/WASHINGTON

CITY           SKY/WX    TMP DP  RH WIND       PRES   REMARKS
GILLETTE       CLOUDY    65  35  33 S15       29.88F
SHERIDAN       MOSUNNY   66  41  40 E8        29.87F
BUFFALO WY     MOSUNNY   63  36  36 SE12      29.89F
CODY           MOSUNNY   57  37  47 N5        29.87F
YELLOWSTONE LA   N/A     48  25  40 VRB7      29.95F
IDAHO FALLS    PTSUNNY   62  36  37 N6        29.84F
SALMON         PTSUNNY   54  37  54 N7        29.87S
BOISE          MOSUNNY   67  40  37 NW13G20   29.84F
SPOKANE        PTSUNNY   57  46  66 S5        29.92S
$$

REGIONAL REPORTS...ALBERTA

CITY           SKY/WX    TMP DP  RH WIND       PRES   REMARKS
EDMONTON       CLOUDY    55  43  62 S8        29.86S
LETHBRIDGE     PTSUNNY   54  39  58 VRB3      29.88S
MEDICINE HAT   PTSUNNY   55  46  71 W7        29.85S
WATERTON GATE    N/A     50  37  62 SW10        N/A
CARDSTON         N/A     57  37  47 SW1         N/A
MILK RIVER       N/A     54  39  58 N2          N/A
$$

REGIONAL REPORTS...SASKATCHEWAN

CITY           SKY/WX    TMP DP  RH WIND       PRES   REMARKS
SWIFT CURRENT  CLOUDY    54  45  71 NW12      29.80R
REGINA         PTSUNNY   61  43  51 SW10      29.81S
SASKATOON      CLOUDY    55  52  88 NE18      29.87R
CYPRESS HILLS    N/A     45  41  87 NW5         N/A
VAL MARIE        N/A     55  46  71 W15         N/A
ROCKGLEN         N/A     55  45  67 SW18        N/A
ASSINIBOIA       N/A     57  45  62 SE6         N/A
$$




USA.gov is the U.S. government's official web portal to all federal, state and local government web resources and services.